User: anonymous
Location: Mississauga
(43.5802°N, 79.6166°W)
Time: 23:11:21
(UTC-04:00)
Language:

Cosmos 1437 Rocket - Orbit

View from above orbital plane
View from above orbital plane
View from above satellite
View from above satellite

Ground track
Ground track

The orbit data is extracted from the following two-line orbital elements,

1 13771U 83003B   14293.81088054  .00005577  00000-0  36952-3 0  1596
2 13771 081.1593 040.2371 0029573 338.1497 021.8463 15.06790802727464
Epoch (UTC): 20 October 2014 19:27:40
Eccentricity: 0.0029573
inclination: 81.1593°
perigee height: 525 km
apogee height: 566 km
right ascension of ascending node: 40.2371°
argument of perigee: 338.1497°
revolutions per day: 15.06790802
mean anomaly at epoch: 21.8463°
orbit number at epoch: 72746

The dashed part of the orbit path shows where the satellite is in the earth's shadow,  

DLR